GW2224 Weather Reports


time (UTC)temp
C
wind
direction
speed
KPH
gust
KPH
rain 1hr
cm
rain 24hr
cm
rain mn
cm
humidity
%
barometer
mb
20260505035421 12 170 6.4 22.5 0.00 0.00 0.00 94 1012.8
20260505034919 12 191 17.7 20.9 0.00 0.00 0.00 94 1012.7
20260505034415 12 192 14.5 22.5 0.00 0.00 0.00 94 1012.9
20260505033912 12 187 11.3 22.5 0.00 0.00 0.00 94 1012.7
20260505033409 12 205 6.4 20.9 0.00 0.00 0.00 94 1012.8
20260505032907 12 167 8.0 20.9 0.00 0.00 0.00 94 1012.7
20260505032403 12 195 9.7 24.1 0.00 0.00 0.00 94 1012.7
20260505031900 12 192 14.5 22.5 0.00 0.00 0.00 94 1012.9
20260505031357 12 206 9.7 19.3 0.00 0.00 0.00 94 1012.8
20260505030854 12 181 12.9 19.3 0.00 0.00 0.00 94 1012.9
20260505030350 12 220 9.7 24.1 0.00 0.00 0.00 94 1012.7
20260505025845 12 205 11.3 27.4 0.00 0.00 0.00 94 1012.8
20260505025343 12 215 11.3 22.5 0.00 0.00 0.00 94 1012.9
20260505024842 12 193 9.7 20.9 0.00 0.00 0.00 94 1012.8
20260505024339 12 193 11.3 20.9 0.00 0.00 0.00 94 1013.1
20260505023836 12 207 14.5 24.1 0.00 0.00 0.00 94 1013.0
20260505023333 12 204 9.7 20.9 0.00 0.00 0.00 94 1012.9
20260505022830 12 180 9.7 22.5 0.00 0.00 0.00 94 1013.0
20260505022327 12 222 20.9 22.5 0.00 0.00 0.00 94 1013.1
20260505021825 12 181 8.0 20.9 0.00 0.00 0.00 94 1013.0
20260505021321 12 193 12.9 22.5 0.00 0.00 0.00 94 1013.2
20260505020817 12 208 16.1 20.9 0.00 0.00 0.00 94 1013.0
20260505020313 12 189 6.4 25.7 0.00 0.00 0.00 94 1013.0
20260505015810 12 190 8.0 20.9 0.00 0.00 0.00 94 1013.0
20260505015307 12 184 17.7 22.5 0.00 0.00 0.00 93 1012.9
20260505014804 12 209 8.0 25.7 0.00 0.00 0.00 93 1013.0
20260505014301 12 187 16.1 30.6 0.00 0.00 0.00 93 1013.1
20260505013757 12 201 19.3 22.5 0.00 0.00 0.00 92 1013.0
20260505013255 12 184 8.0 24.1 0.00 0.00 0.00 91 1012.9
20260505012753 13 200 16.1 24.1 0.00 0.00 0.00 91 1012.8
20260505012250 13 180 17.7 30.6 0.00 0.00 0.00 91 1012.9
20260505011745 13 177 8.0 29.0 0.00 0.00 0.00 90 1012.9
20260505011243 13 197 17.7 32.2 0.00 0.00 0.00 89 1012.8
20260505010738 13 205 20.9 32.2 0.00 0.00 0.00 89 1012.6
20260505010235 13 196 20.9 25.7 0.00 0.00 0.00 88 1012.5
20260505005731 13 185 17.7 30.6 0.00 0.00 0.00 88 1012.7
20260505005228 13 208 14.5 29.0 0.00 0.00 0.00 88 1012.5
20260505004725 13 196 14.5 30.6 0.00 0.00 0.00 87 1012.5
20260505004222 13 193 19.3 32.2 0.00 0.00 0.00 86 1012.7
20260505003719 13 168 17.7 35.4 0.00 0.00 0.00 85 1012.4
20260505003217 14 233 9.7 51.5 0.00 0.00 0.00 85 1012.4
20260505002713 14 212 19.3 35.4 0.00 0.00 0.00 85 1012.3
20260505002211 13 209 27.4 37.0 0.00 0.00 0.00 86 1012.1
20260505001708 13 203 17.7 37.0 0.00 0.00 0.00 87 1012.2
20260505001205 13 202 20.9 29.0 0.00 0.00 0.00 88 1012.2
20260505000702 13 205 20.9 25.7 0.00 0.00 0.00 89 1011.8
20260505000200 13 233 9.7 38.6 0.00 0.00 0.00 89 1012.0
20260504235656 13 199 30.6 30.6 0.00 0.00 0.00 90 1011.9
20260504235152 13 203 9.7 24.1 0.00 0.00 0.00 90 1012.1
20260504234650 13 204 11.3 17.7 0.00 0.00 0.00 91 1012.1
20260504234147 13 167 6.4 17.7 0.00 0.00 0.00 91 1012.1
20260504233643 13 207 14.5 20.9 0.00 0.00 0.00 91 1012.0
20260504233139 13 215 14.5 20.9 0.00 0.00 0.00 90 1012.2
20260504232637 13 223 8.0 17.7 0.00 0.00 0.00 90 1012.1
20260504232133 13 226 9.7 24.1 0.00 0.00 0.00 90 1012.1
20260504231630 13 188 8.0 20.9 0.00 0.00 0.00 90 1011.9
20260504231127 13 190 8.0 17.7 0.00 0.00 0.00 90 1011.8
20260504230623 13 202 8.0 17.7 0.00 0.00 0.00 89 1012.1
20260504230122 13 189 11.3 24.1 0.00 0.00 0.00 89 1012.2
20260504225619 13 195 19.3 20.9 0.00 0.00 0.00 90 1012.4
20260504225115 13 174 6.4 19.3 0.00 0.00 0.00 90 1012.2
20260504224612 13 116 3.2 12.9 0.00 0.00 0.00 89 1012.3
20260504224109 13 211 6.4 16.1 0.00 0.00 0.00 89 1012.3
20260504223606 13 175 6.4 16.1 0.00 0.00 0.00 89 1012.1
20260504223102 13 172 12.9 12.9 0.00 0.00 0.00 89 1012.1
20260504222559 13 197 6.4 14.5 0.00 0.00 0.00 89 1012.1
20260504222056 13 159 6.4 17.7 0.00 0.00 0.00 89 1012.1
20260504221553 13 131 6.4 20.9 0.00 0.00 0.00 88 1012.1
20260504221050 13 116 6.4 17.7 0.00 0.00 0.00 89 1012.0
20260504220547 13 186 6.4 17.7 0.00 0.00 0.00 88 1012.0
20260504220044 13 201 9.7 19.3 0.00 0.00 0.00 88 1012.0
20260504215540 13 192 14.5 22.5 0.00 0.00 0.00 88 1011.8
20260504215038 13 144 8.0 20.9 0.00 0.00 0.00 88 1012.0
20260504214533 13 185 8.0 16.1 0.00 0.00 0.00 88 1012.0
20260504214030 13 209 16.1 16.1 0.00 0.00 0.00 88 1012.0
20260504213526 13 189 14.5 19.3 0.00 0.00 0.00 88 1012.1
20260504213024 13 176 11.3 24.1 0.00 0.00 0.00 88 1012.1
20260504212519 13 212 8.0 22.5 0.00 0.00 0.00 87 1012.2
20260504212017 13 191 16.1 27.4 0.00 0.00 0.00 87 1012.2
20260504211514 13 188 8.0 17.7 0.00 0.00 0.00 87 1012.2
20260504211011 13 116 12.9 20.9 0.00 0.00 0.00 87 1012.2
20260504210508 13 120 4.8 22.5 0.00 0.00 0.00 87 1012.2
20260504210005 13 208 22.5 22.5 0.00 0.00 0.00 86 1012.0
20260504205502 13 156 8.0 20.9 0.00 0.00 0.00 86 1012.2
20260504205000 13 186 8.0 20.9 0.00 0.00 0.00 86 1012.2
20260504204458 14 187 8.0 20.9 0.00 0.00 0.00 85 1012.2
20260504203957 14 203 9.7 24.1 0.00 0.00 0.00 85 1012.3
20260504203455 13 173 8.0 29.0 0.00 0.00 0.00 86 1012.2
20260504202950 14 172 14.5 27.4 0.00 0.00 0.00 85 1012.3
20260504202447 13 168 17.7 27.4 0.00 0.00 0.00 85 1012.2
20260504201944 14 183 12.9 20.9 0.00 0.00 0.00 84 1012.3
20260504201441 14 159 17.7 27.4 0.00 0.00 0.00 85 1012.3
20260504200939 13 153 14.5 27.4 0.00 0.00 0.00 85 1012.2
20260504200435 14 190 12.9 20.9 0.00 0.00 0.00 85 1012.3
20260504195932 14 184 17.7 25.7 0.00 0.00 0.00 85 1012.4
20260504195428 13 155 11.3 29.0 0.00 0.00 0.00 85 1012.2
20260504194924 13 127 8.0 22.5 0.00 0.00 0.00 85 1012.4
20260504194420 13 167 14.5 24.1 0.00 0.00 0.00 85 1012.7
20260504193916 14 136 11.3 22.5 0.00 0.00 0.00 85 1012.8
20260504193414 13 129 14.5 24.1 0.00 0.00 0.00 85 1012.6
20260504192913 13 149 14.5 22.5 0.00 0.00 0.00 86 1012.7
20260504192409 13 163 16.1 25.7 0.00 0.00 0.00 85 1012.8
20260504191909 13 149 19.3 29.0 0.00 0.00 0.00 85 1012.8
20260504191406 13 127 14.5 29.0 0.00 0.00 0.00 85 1012.9
20260504190901 13 136 11.3 24.1 0.00 0.00 0.00 85 1012.8
20260504190357 13 168 17.7 30.6 0.00 0.00 0.00 84 1012.9
20260504185854 13 141 11.3 32.2 0.00 0.00 0.00 85 1013.0
20260504185351 13 147 17.7 27.4 0.00 0.00 0.00 85 1013.0
20260504184847 14 158 8.0 22.5 0.00 0.00 0.00 83 1013.2
20260504184343 14 121 11.3 24.1 0.00 0.00 0.00 82 1013.4
20260504183839 13 188 9.7 20.9 0.00 0.00 0.00 84 1013.5
20260504183337 14 174 11.3 20.9 0.00 0.00 0.00 83 1013.4
20260504182834 14 114 16.1 27.4 0.00 0.00 0.00 82 1013.3
20260504182331 14 121 11.3 22.5 0.00 0.00 0.00 83 1013.4
20260504181828 14 176 11.3 24.1 0.00 0.00 0.00 82 1013.5
20260504181325 14 150 27.4 30.6 0.00 0.00 0.00 83 1013.4
20260504180824 14 164 9.7 27.4 0.00 0.00 0.00 83 1013.6
20260504180322 14 191 25.7 29.0 0.00 0.00 0.00 82 1013.6
20260504175820 15 176 19.3 25.7 0.00 0.00 0.00 81 1013.7
20260504175317 15 173 11.3 22.5 0.00 0.00 0.00 80 1013.7
20260504174815 15 195 14.5 20.9 0.00 0.00 0.00 82 1013.8
20260504174312 15 196 19.3 22.5 0.00 0.00 0.00 80 1013.9
20260504173809 15 201 12.9 25.7 0.00 0.00 0.00 81 1014.1
20260504173305 15 197 9.7 22.5 0.00 0.00 0.00 83 1014.0
20260504172803 13 165 14.5 33.8 0.00 0.00 0.00 83 1014.0
20260504172259 14 125 11.3 22.5 0.00 0.00 0.00 82 1014.1
20260504171755 15 165 8.0 19.3 0.00 0.00 0.00 82 1014.2
20260504171252 14 166 6.4 24.1 0.00 0.00 0.00 83 1014.3
20260504170749 14 168 9.7 27.4 0.00 0.00 0.00 82 1014.4
20260504170246 14 163 11.3 25.7 0.00 0.00 0.00 83 1014.4
20260504160205 14 219 16.1 22.5 0.00 0.00 0.00 83 1014.9
20260504151133 13 205 16.1 20.9 0.00 0.00 0.00 83 1015.2
20260504150630 13 193 6.4 22.5 0.00 0.00 0.00 84 1015.3
20260504150127 13 214 16.1 27.4 0.00 0.00 0.00 83 1015.4
20260504141055 13 208 11.3 22.5 0.00 0.00 0.00 83 1015.5
20260504140552 13 205 9.7 24.1 0.00 0.00 0.00 84 1015.4
20260504130516 12 172 20.9 20.9 0.00 0.00 0.00 87 1015.8
20260504110404 12 194 17.7 22.5 0.00 0.00 0.00 77 1016.5
20260504100321 11 204 11.3 17.7 0.00 0.00 0.00 80 1016.4
20260504081714 11 229 11.3 27.4 0.00 0.00 0.00 67 1016.2
20260504081211 11 222 8.0 24.1 0.00 0.00 0.00 66 1016.3
20260504080707 11 242 9.7 24.1 0.00 0.00 0.00 65 1016.2
20260504080204 11 250 8.0 20.9 0.00 0.00 0.00 63 1016.0
20260504070131 11 210 6.4 19.3 0.00 0.00 0.00 62 1016.0
20260504050520 12 236 6.4 17.7 0.00 0.00 0.00 54 1015.7
20260504050017 12 247 8.0 14.5 0.00 0.00 0.00 54 1015.6
20260504045514 12 330 3.2 24.1 0.00 0.00 0.00 54 1015.5
20260504045009 12 219 11.3 19.3 0.00 0.00 0.00 53 1015.4
20260504044507 12 209 9.7 14.5 0.00 0.00 0.00 53 1015.4
20260504044004 12 210 6.4 17.7 0.00 0.00 0.00 53 1015.5
20260504043500 12 254 6.4 27.4 0.00 0.00 0.00 53 1015.6
20260504042958 12 296 17.7 19.3 0.00 0.00 0.00 53 1015.5
20260504042454 12 247 9.7 17.7 0.00 0.00 0.00 55 1015.7
20260504041951 12 59 6.4 16.1 0.00 0.00 0.00 55 1015.4
20260504041448 12 225 6.4 14.5 0.00 0.00 0.00 56 1015.5
20260504040943 12 263 6.4 19.3 0.00 0.00 0.00 56 1015.4
20260504040441 12 237 8.0 20.9 0.00 0.00 0.00 56 1015.5
20260504035937 12 220 9.7 24.1 0.00 0.00 0.00 56 1015.4